FW4331 Weather Reports


time (UTC)temp
F
wind
direction
speed
knots
gust
knots
rain 1hr
in
rain 24hr
in
rain mn
in
humidity
%
barometer
mb
20260510123025 64 118 0.0 0.9 0.00 0.00 0.00 39 1012.1
20260510121520 61 44 0.0 3.5 0.00 0.00 0.00 44 1012.1
20260510120015 59 321 0.0 0.0 0.00 0.00 0.00 48 1011.8
20260510114511 57 321 0.0 0.0 0.00 0.00 0.00 46 1011.7
20260510113006 56 321 0.0 0.0 0.00 0.00 0.00 49 1011.5
20260510111503 53 321 0.0 0.0 0.00 0.00 0.00 49 1011.1
20260510110059 52 321 0.0 0.0 0.00 0.00 0.00 49 1011.0
20260510104556 50 266 0.0 0.9 0.00 0.00 0.00 49 1010.7
20260510103053 50 245 0.0 0.0 0.00 0.00 0.00 50 1010.7
20260510101552 49 245 0.0 0.9 0.00 0.00 0.00 50 1010.3
20260510100110 49 245 0.0 0.9 0.00 0.00 0.00 49 1010.2
20260510094555 49 245 0.0 0.9 0.00 0.00 0.00 49 1010.3
20260510093048 49 245 0.0 1.7 0.00 0.00 0.00 48 1010.3
20260510091540 50 13 0.0 0.0 0.00 0.00 0.00 49 1010.1
20260510090038 51 13 0.0 1.7 0.00 0.00 0.00 49 1010.1
20260510084536 51 356 0.0 3.5 0.00 0.00 0.00 49 1010.1
20260510083038 50 10 0.9 1.7 0.00 0.00 0.00 49 1010.0
20260510081530 50 288 0.0 0.0 0.00 0.00 0.00 48 1009.9
20260510080027 51 288 0.0 0.0 0.00 0.00 0.00 48 1009.7
20260510074523 51 288 0.0 0.9 0.00 0.00 0.00 47 1009.6
20260510073022 51 269 0.0 0.0 0.00 0.00 0.00 45 1009.6
20260510071532 51 277 0.0 0.0 0.00 0.00 0.00 42 1009.5
20260510070014 51 310 0.0 0.0 0.00 0.00 0.00 42 1009.2
20260510064511 52 310 0.0 0.0 0.00 0.00 0.00 42 1009.0
20260510063007 52 236 0.0 0.0 0.00 0.00 0.00 46 1008.9
20260510061502 53 6 0.0 0.0 0.00 0.00 0.00 48 1008.8
20260510060100 53 6 0.0 0.0 0.00 0.00 0.00 50 1008.8
20260510054556 54 6 0.0 0.9 0.00 0.00 0.00 53 1008.8
20260510053054 54 6 0.0 0.9 0.00 0.00 0.00 54 1008.9
20260510051550 55 230 0.0 0.0 0.00 0.00 0.00 53 1009.0
20260510050046 56 230 0.0 0.0 0.00 0.00 0.00 52 1009.0
20260510044546 56 287 0.0 0.0 0.00 0.00 0.00 53 1009.0
20260510043042 56 334 0.0 1.7 0.00 0.00 0.00 54 1008.8
20260510041537 56 148 0.0 0.0 0.00 0.00 0.00 55 1008.8
20260510040036 56 148 0.0 0.0 0.00 0.00 0.00 57 1008.6
20260510034539 56 148 0.0 0.0 0.00 0.00 0.00 59 1008.7
20260510033031 57 148 0.0 0.0 0.00 0.00 0.00 59 1008.6
20260510031539 58 148 0.0 0.0 0.00 0.00 0.00 59 1008.4
20260510030026 58 148 0.0 0.0 0.00 0.00 0.00 60 1008.6
20260510024536 59 148 0.0 0.0 0.00 0.00 0.00 61 1008.4
20260510023023 59 148 0.0 0.0 0.00 0.00 0.00 59 1008.4
20260510021523 60 148 0.0 0.0 0.00 0.00 0.00 59 1008.2
20260510020018 61 148 0.0 0.0 0.00 0.00 0.00 57 1008.0
20260510014518 62 148 0.0 0.0 0.00 0.00 0.00 56 1007.8
20260510013014 62 148 0.0 0.0 0.00 0.00 0.00 55 1007.6
20260510011512 63 148 0.0 0.0 0.00 0.00 0.00 53 1007.3
20260510010009 65 148 0.0 0.0 0.00 0.00 0.00 50 1007.1
20260510004508 66 148 0.0 0.0 0.00 0.00 0.00 48 1006.8
20260510003016 67 148 0.0 0.0 0.00 0.00 0.00 49 1006.7
20260510001504 68 153 0.0 0.0 0.00 0.00 0.00 45 1006.7
20260510000108 68 153 0.0 0.0 0.00 0.00 0.00 43 1006.6
20260509234615 69 153 0.0 0.0 0.00 0.00 0.00 42 1006.5
20260509233058 71 153 0.0 0.0 0.00 0.00 0.00 41 1006.4
20260509231556 72 153 0.0 0.0 0.00 0.00 0.00 39 1006.2
20260509230100 73 145 0.0 0.9 0.00 0.00 0.00 35 1006.4
20260509224553 74 264 0.0 0.0 0.00 0.00 0.00 37 1006.3
20260509223051 75 264 0.0 0.0 0.00 0.00 0.00 34 1006.4
20260509221548 73 264 0.0 0.0 0.00 0.00 0.00 36 1006.4
20260509220047 73 264 0.0 1.7 0.00 0.00 0.00 35 1006.4
20260509214545 73 258 0.0 2.6 0.00 0.00 0.00 36 1006.5
20260509213044 73 285 0.0 2.6 0.00 0.00 0.00 35 1006.4
20260509211540 74 290 2.6 7.0 0.00 0.00 0.00 33 1006.2
20260509210044 74 231 2.6 7.8 0.00 0.00 0.00 33 1006.3
20260509204536 75 250 1.7 8.7 0.00 0.00 0.00 32 1006.1
20260509203037 76 263 1.7 5.2 0.00 0.00 0.00 33 1006.2
20260509201525 75 271 3.5 11.3 0.00 0.00 0.00 35 1006.2
20260509200025 74 241 1.7 7.0 0.00 0.00 0.00 35 1006.2
20260509194523 74 155 3.5 7.8 0.00 0.00 0.00 36 1006.4
20260509193014 72 232 3.5 9.6 0.00 0.00 0.00 37 1006.9
20260509191508 71 243 2.6 10.4 0.00 0.00 0.00 40 1007.0
20260509190003 71 179 2.6 9.6 0.00 0.00 0.00 40 1007.4
20260509184605 70 267 1.7 6.1 0.00 0.00 0.00 42 1007.6
20260509183138 70 232 1.7 5.2 0.00 0.00 0.00 41 1007.4
20260509181610 69 214 0.0 3.5 0.00 0.00 0.00 43 1007.9
20260509180052 69 271 0.9 5.2 0.00 0.00 0.00 43 1008.3
20260509174547 68 254 0.0 4.3 0.00 0.00 0.00 44 1008.4
20260509173044 68 233 0.0 4.3 0.00 0.00 0.00 45 1008.7
20260509171544 69 271 1.7 7.8 0.00 0.00 0.00 42 1008.7
20260509170040 70 234 0.9 6.1 0.00 0.00 0.00 41 1008.6
20260509164536 69 230 2.6 7.8 0.00 0.00 0.00 42 1008.6
20260509163033 67 289 0.9 5.2 0.00 0.00 0.00 45 1008.9
20260509161534 67 248 2.6 9.6 0.00 0.00 0.00 44 1009.0
20260509160028 67 209 3.5 8.7 0.00 0.00 0.00 44 1008.9
20260509154525 67 230 3.5 7.8 0.00 0.00 0.00 42 1008.9
20260509153022 67 153 4.3 9.6 0.00 0.00 0.00 42 1009.2
20260509151518 66 270 3.5 7.0 0.00 0.00 0.00 43 1009.1
20260509150017 66 280 1.7 6.1 0.00 0.00 0.00 44 1009.2
20260509144525 64 240 3.5 7.0 0.00 0.00 0.00 43 1009.3
20260509143008 63 226 3.5 7.8 0.00 0.00 0.00 45 1009.6
20260509141507 62 139 1.7 5.2 0.00 0.00 0.00 46 1009.7
20260509140001 61 176 3.5 7.8 0.00 0.00 0.00 46 1009.8
20260509134601 60 250 1.7 5.2 0.00 0.00 0.00 47 1009.7
20260509133051 58 278 0.0 3.5 0.00 0.00 0.00 49 1009.8
20260509131547 57 246 0.0 5.2 0.00 0.00 0.00 49 1009.8
20260509130045 57 265 0.0 4.3 0.00 0.00 0.00 49 1009.8
20260509124639 57 218 0.0 6.1 0.00 0.00 0.00 49 1009.8